Mt. Pocono, PA

9:16 AM EDT on April 28, 2017 (GMT -0400)
Pocono Mountains Municipal

Weather History for KMPO - April, 2014

Change the Weather History Date:

Thursday, April 17, 2014

  Actual Average Record
Temperature  
Mean Temperature 37 °F 46 °F  
Max Temperature 47 °F 56 °F 87 °F (2002)
Min Temperature 26 °F 36 °F 17 °F (1928)
Degree Days  
Heating Degree Days 28 19  
Month to date heating degree days 346 379  
Since 1 July heating degree days 6949 6477  
Cooling Degree Days 0 0  
Month to date cooling degree days 0 0  
Year to date cooling degree days 0 0  
Moisture  
Dew Point 18 °F    
Average Humidity 61    
Maximum Humidity 85    
Minimum Humidity 36    
Precipitation  
Precipitation 0.00 in 0.10 in 1.87 in (1986)
Month to date precipitation 2.78 2.57  
Year to date precipitation 11.38 11.66  
Sea Level Pressure  
Sea Level Pressure 30.61 in    
Wind  
Wind Speed 9 mph (SE)    
Max Wind Speed 16 mph    
Max Gust Speed 22 mph    
Visibility 10 miles    
Events      
T = Trace of Precipitation, MM = Missing Value Source: NWS Daily Summary

Daily Weather History Graph

Daily Weather History Graph

Search for Another Location

Airport or City:

Trip Planner

Search our weather history database for the weather conditions in past years. The results will help you decide how hot, cold, wet, or windy it might be!

Date:

Astronomy

Apr. 17, 2014 Rise Set
Actual Time 6:19 AM EDT 7:43 PM EDT
Civil Twilight 5:50 AM EDT 8:12 PM EDT
Nautical Twilight 5:15 AM EDT 8:47 PM EDT
Astronomical Twilight 4:39 AM EDT 9:23 PM EDT
Moon 10:28 PM EDT (4/17) 7:48 AM EDT (4/17)
Length of Visible Light 14h 21m
Length of Day
13h 24m
Waning Gibbous, 94% of the Moon is Illuminated
Apr 17
Waning Gibbous
Apr 22
Last Quarter
Apr 29
New
May 6
First Quarter
May 14
Full

Hourly Weather History & Observations

Time (EDT) Temp. Windchill Dew Point Humidity Pressure Visibility Wind Dir Wind Speed Gust Speed Precip Events Conditions
12:53 AM 28.0 °F 24.2 °F 14.0 °F 56% 30.59 in 10.0 mi ENE 3.5 mph - N/A   Clear
1:53 AM 27.0 °F 21.6 °F 14.0 °F 58% 30.59 in 10.0 mi East 4.6 mph - N/A   Clear
2:53 AM 28.0 °F 21.7 °F 14.0 °F 56% 30.59 in 10.0 mi East 5.8 mph - N/A   Clear
3:53 AM 27.0 °F 20.5 °F 14.0 °F 58% 30.60 in 10.0 mi East 5.8 mph - N/A   Clear
4:53 AM 27.0 °F 18.7 °F 12.9 °F 56% 30.60 in 10.0 mi East 8.1 mph - N/A   Clear
5:53 AM 26.1 °F 16.2 °F 12.9 °F 58% 30.60 in 10.0 mi East 10.4 mph - N/A   Clear
6:53 AM 26.1 °F 16.8 °F 12.9 °F 58% 30.63 in 10.0 mi East 9.2 mph - N/A   Clear
7:53 AM 28.0 °F 17.5 °F 14.0 °F 56% 30.66 in 10.0 mi East 12.7 mph - N/A   Clear
8:53 AM 30.0 °F 20.0 °F 15.1 °F 54% 30.67 in 10.0 mi ESE 12.7 mph 21.9 mph N/A   Clear
9:53 AM 34.0 °F 24.6 °F 16.0 °F 48% 30.69 in 10.0 mi ESE 13.8 mph - N/A   Clear
10:53 AM 36.0 °F 29.0 °F 18.0 °F 48% 30.68 in 10.0 mi South 9.2 mph - N/A   Clear
1:53 PM 43.0 °F 35.7 °F 18.0 °F 37% 30.64 in 10.0 mi SE 15.0 mph 23.0 mph N/A   Clear
2:53 PM 45.0 °F 39.3 °F 19.0 °F 36% 30.62 in 10.0 mi South 11.5 mph 17.3 mph N/A   Clear
3:53 PM 46.9 °F - 21.0 °F 36% 30.59 in 10.0 mi SE 11.5 mph 16.1 mph N/A   Clear
4:53 PM 45.0 °F 38.9 °F 21.0 °F 39% 30.58 in 10.0 mi SSE 12.7 mph - N/A   Clear
5:53 PM 44.1 °F 39.0 °F 21.0 °F 40% 30.60 in 10.0 mi South 9.2 mph - N/A   Clear
6:53 PM 42.1 °F 36.6 °F 21.9 °F 45% 30.60 in 10.0 mi SSE 9.2 mph - N/A   Clear
7:53 PM 37.9 °F 31.5 °F 24.1 °F 57% 30.60 in 10.0 mi SSE 9.2 mph - N/A   Clear
8:53 PM 35.1 °F 27.9 °F 25.0 °F 67% 30.60 in 10.0 mi SE 9.2 mph - N/A   Clear
9:53 PM 32.0 °F 25.6 °F 25.0 °F 75% 30.61 in 10.0 mi SE 6.9 mph - N/A   Clear
10:53 PM 30.9 °F 26.2 °F 25.0 °F 79% 30.58 in 10.0 mi South 4.6 mph - N/A   Clear
11:53 PM 28.9 °F - 25.0 °F 85% 30.57 in 10.0 mi Calm Calm - N/A   Clear